Location: Edemissen
(51.7689°N, 9.8634°E)
Time: 21:32:39
(UTC+00:00)

Orbus 7S? - Visible Passes

Search period start: 13 September 2024 00:00
Search period end: 23 September 2024 00:00
Orbit: 365 x 6246 km, 56.9° (Epoch: 03 July)

Date Brightness Start Highest point End Pass type
(mag) Time Alt. Az. Time Alt. Az. Time Alt. Az.
13 Sep 7.6 02:01:46 10° SSW 02:30:16 51° SE 02:42:26 10° ENE visible
13 Sep 8.8 23:13:45 10° SE 23:25:21 14° ESE 23:33:59 10° E visible
14 Sep 7.6 01:44:59 14° S 02:10:35 49° SE 02:23:04 10° ENE visible
14 Sep 8.8 22:56:37 10° ESE 23:05:55 13° ESE 23:13:16 10° E visible
15 Sep 7.7 01:28:04 17° S 01:50:54 47° SE 02:03:39 10° ENE visible
15 Sep 6.6 04:11:40 10° WSW 04:37:46 88° NNW 04:47:04 10° ENE visible
15 Sep 8.8 22:40:15 10° ESE 22:46:30 11° ESE 22:51:50 10° E visible
16 Sep 7.8 01:10:56 20° S 01:31:12 45° SE 01:44:13 10° ENE visible
16 Sep 6.7 03:51:12 10° SW 04:18:06 89° SSE 04:27:44 10° ENE visible
17 Sep 7.8 00:53:37 23° S 01:11:27 43° SE 01:24:45 10° ENE visible
17 Sep 6.8 03:31:41 11° SW 03:58:24 87° SSE 04:08:23 10° ENE visible
18 Sep 7.9 00:36:08 25° SSE 00:51:42 41° ESE 01:05:14 10° ENE visible
18 Sep 6.8 03:14:12 15° SW 03:38:41 84° SSE 03:49:00 10° ENE visible
19 Sep 7.9 00:18:30 27° SSE 00:31:56 39° ESE 00:45:40 10° ENE visible
19 Sep 6.9 02:56:33 19° SW 03:18:55 81° SE 03:29:36 10° ENE visible
20 Sep 8.0 00:00:44 28° SSE 00:12:10 37° ESE 00:26:04 10° ENE visible
20 Sep 6.9 02:38:45 23° SW 02:59:08 79° SE 03:10:11 10° ENE visible
20 Sep 8.1 23:42:51 29° SSE 23:52:23 35° ESE 00:06:26 10° ENE visible
21 Sep 7.0 02:20:51 27° SW 02:39:19 76° SE 02:50:44 10° ENE visible
21 Sep 8.1 23:24:51 29° SE 23:32:35 33° ESE 23:46:44 10° ENE visible
22 Sep 7.0 02:02:51 31° SW 02:19:28 74° SE 02:31:16 10° ENE visible
22 Sep 8.2 23:06:44 28° SE 23:12:47 31° ESE 23:26:59 10° ENE visible
